This demonstration page uses our WeatherBlox Daily Observations layout. Learn more.

Left ArrowRight Arrow

39.08367, -84.50855

Hourly Observations for December 10, 2019

Temp ( °F °C ) Dew Point ( °F °C ) Humidity (%) Winds ( mph kmh ) Pressure ( in mb ) Visibility ( mi km ) Precip ( " mm )
12:53 am 00:53 Cloudy 53 11.7 47 8.3 80 80 WNW 9 15 29.77 1008 10 16 N/A
1:53 am 01:53 Cloudy 50 10 44 6.7 80 80 WNW 15 24 29.80 1009 10 16 N/A
2:53 am 02:53 Cloudy 47 8.3 38 3.3 71 71 WNW 16 26 29.84 1010 10 16 N/A
3:21 am 03:21 Cloudy 45 7.2 37 2.8 74 74 W 12 19 29.87 1012 10 16 N/A
3:53 am 03:53 Cloudy 44 6.7 36 2.2 73 73 W 13 20 29.89 1012 10 16 N/A
4:53 am 04:53 Mostly Cloudy 41 5 34 1.1 76 76 W 14 22 29.92 1013 10 16 N/A
5:08 am 05:08 Partly Cloudy 39 3.9 32 undefined 76 76 WNW 15 24 29.95 1014 10 16 N/A
5:40 am 05:40 Mostly Cloudy 37 2.8 31 -0.6 79 79 WNW 10 17 29.98 1015 10 16 N/A
5:53 am 05:53 Cloudy 36 2.2 30 -1.1 79 79 WNW 17 28 29.97 1015 10 16 N/A
6:06 am 06:06 Cloudy 36 2.2 29 -1.7 76 76 WNW 13 20 29.99 1016 10 16 N/A
6:53 am 06:53 Clear 34 1.1 27 -2.8 76 76 W 13 20 30.00 1016 10 16 N/A
7:53 am 07:53 Cloudy 33 0.6 25 -3.9 72 72 W 16 26 30.05 1018 10 16 N/A
8:53 am 08:53 Mostly Cloudy 32 undefined 18 -7.8 56 56 WNW 12 19 30.12 1020 10 16 N/A
9:53 am 09:53 Mostly Cloudy 31 -0.6 20 -6.7 64 64 W 18 30 30.17 1022 10 16 N/A
10:53 am 10:53 Mostly Cloudy 29 -1.7 18 -7.8 63 63 W 10 17 30.19 1022 10 16 N/A
11:53 am 11:53 Mostly Cloudy 28 -2.2 17 -8.3 63 63 W 14 22 30.19 1023 10 16 N/A
12:53 pm 12:53 Mostly Cloudy 28 -2.2 17 -8.3 63 63 W 10 17 30.21 1023 10 16 N/A
1:00 pm 13:00 Partly Cloudy 28 -2.2 17 -8.3 63 63 W 10 17 30.24 1024 10 16 N/A
1:53 pm 13:53 Mostly Sunny 29 -1.7 17 -8.3 61 61 W 14 22 30.22 1023 10 16 N/A
2:53 pm 14:53 Mostly Sunny 28 -2.2 15 -9.4 58 58 WSW 9 15 30.24 1024 10 16 N/A
3:53 pm 15:53 Mostly Sunny 29 -1.7 16 -8.9 58 58 WSW 9 15 30.27 1025 10 16 N/A
4:53 pm 16:53 Sunny 29 -1.7 16 -8.9 58 58 WSW 10 17 30.30 1026 10 16 N/A
5:53 pm 17:53 Clear 28 -2.2 14 -10 56 56 W 10 17 30.32 1027 10 16 N/A
6:53 pm 18:53 Clear 28 -2.2 14 -10 56 56 WSW 12 19 30.35 1028 10 16 N/A
7:53 pm 19:53 Clear 28 -2.2 13 -10.6 53 53 W 10 17 30.38 1029 10 16 N/A
8:53 pm 20:53 Clear 28 -2.2 13 -10.6 53 53 W 13 20 30.38 1029 10 16 N/A
9:53 pm 21:53 Clear 27 -2.8 12 -11.1 53 53 VRB 7 11 30.40 1029 10 16 N/A
10:53 pm 22:53 Clear 26 -3.3 11 -11.7 53 53 W 10 17 30.41 1030 10 16 N/A
11:53 pm 23:53 Clear 25 -3.9 12 -11.1 58 58 W 13 20 30.41 1030 10 16 N/A

Powered by AerisWeather